{"data":{"norad_id":53670,"intl_designator":"2022-105Y","name":"STARLINK-4459","alt_names":[],"object_type":"PAYLOAD","status":"ACTIVE","operator":null,"country":"US","launch_date":"2022-08-31","launch_site_code":"AFWTR","launch_vehicle":null,"mission":null,"orbit_class":"UNKNOWN","rcs_meters":null,"size_class":null,"mass_kg":null,"dimensions":null,"purposes":["comms"],"wikipedia_slug":null,"has_3d_model":false,"image_url":null,"decayed_at":null,"tle_current":{"epoch":"2026-09-20T13:22:09.634080Z","epoch_age_seconds":76591,"freshness":"FRESH","line1":"1 53670U 22105Y   26263.55705595  .00000381  00000+0  14141-4 0  9997","line2":"2 53670  97.2840 140.2157 0001785  96.0739 264.0707 15.33436495222744","mean_motion":15.33436495,"eccentricity":0.0001785,"inclination_deg":97.284,"raan_deg":140.2157,"arg_perigee_deg":96.0739,"mean_anomaly_deg":264.0707,"bstar":1.4141e-5,"rev_number":22274,"period_min":93.906725495013,"perigee_km":464.34687806322,"apogee_km":466.7900809194,"semimajor_km":6843.7054794913,"source":"CELESTRAK","updated_at":"2026-09-21T09:00:32.976478Z"}}}